Location: Vale
(35.4830°N, 81.3830°W)
Time: 01:15:32
(UTC-04:00)

SR - All Passes

Search period start: 30 April 2016 00:00
Search period end: 10 May 2016 00:00
Orbit: 579 x 879 km, 66.7° (Epoch: 29 April)

Date Brightness Start Highest point End Pass type
(mag) Time Alt. Az. Time Alt. Az. Time Alt. Az.
30 Apr - 07:55:28 10° NNW 07:59:50 43° ENE 08:03:56 10° SE daylight
30 Apr - 09:39:05 10° WNW 09:41:22 14° WSW 09:43:36 10° SW daylight
30 Apr - 22:21:00 10° SSW 22:26:48 66° ESE 22:32:17 10° NNE visible
01 May - 00:05:25 10° W 00:09:18 18° NW 00:13:03 10° N visible
01 May - 07:06:53 10° N 07:10:19 20° NE 07:13:36 10° E daylight
01 May - 08:48:26 10° NW 08:52:27 33° WSW 08:56:17 10° S daylight
01 May - 21:32:32 10° S 21:37:40 33° ESE 21:42:35 10° NE visible
01 May - 23:14:31 10° WSW 23:19:43 34° WNW 23:24:40 10° N visible
02 May - 06:20:06 10° NE 06:20:34 10° NE 06:21:02 10° NE daylight
02 May - 07:58:49 10° NNW 08:03:22 83° WSW 08:07:37 10° SSE daylight
02 May - 20:45:18 10° SE 20:48:40 16° ESE 20:51:58 10° ENE visible
02 May - 22:24:32 10° SW 22:30:19 66° WNW 22:35:47 10° NNE visible
03 May - 07:09:44 10° NNW 07:14:03 41° ENE 07:18:07 10° SE daylight
03 May - 08:53:11 10° WNW 08:55:37 15° WSW 08:57:59 10° SW daylight
03 May - 21:35:19 10° SSW 21:41:04 64° ESE 21:46:31 10° NE visible
03 May - 23:19:35 10° W 23:23:32 19° NW 23:27:21 10° N visible
04 May - 06:21:12 10° N 06:24:32 20° NE 06:27:42 10° E daylight
04 May - 08:02:38 10° NW 08:06:41 35° WSW 08:10:33 10° S daylight
04 May - 20:46:53 10° S 20:51:56 31° ESE 20:56:46 10° NE visible
04 May - 22:28:44 10° WSW 22:33:58 35° WNW 22:38:55 10° N visible
05 May - 07:13:04 10° NNW 07:17:36 87° WSW 07:21:50 10° SSE daylight
05 May - 19:59:46 10° SE 20:02:57 15° ESE 20:06:03 10° ENE daylight
05 May - 21:38:48 10° SW 21:44:35 68° WNW 21:50:01 10° NNE visible
05 May - 23:26:47 10° NW 23:27:32 10° NW 23:28:16 10° NW visible
06 May - 06:24:01 10° NNW 06:28:16 39° ENE 06:32:17 10° SE daylight
06 May - 08:07:18 10° WNW 08:09:52 15° WSW 08:12:22 10° SW daylight
06 May - 20:49:36 10° SSW 20:55:20 61° ESE 21:00:44 10° NE visible
06 May - 22:33:44 10° W 22:37:45 19° NW 22:41:37 10° N visible
07 May - 05:35:31 10° N 05:38:44 19° NE 05:41:48 10° E visible
07 May - 07:16:51 10° NW 07:20:55 36° WSW 07:24:49 10° S daylight
07 May - 20:01:15 10° SSE 20:06:12 30° ESE 20:10:57 10° NE daylight
07 May - 21:42:58 10° WSW 21:48:12 36° WNW 21:53:11 10° N visible
08 May - 06:27:19 10° NNW 06:31:48 89° ENE 06:36:03 10° SSE daylight
08 May - 19:14:15 10° SE 19:17:14 14° ESE 19:20:07 10° ENE daylight
08 May - 20:53:03 10° SSW 20:58:50 71° WNW 21:04:15 10° NNE visible
08 May - 22:40:36 10° WNW 22:41:44 11° NW 22:42:52 10° NNW visible
09 May - 05:38:17 10° N 05:42:28 37° ENE 05:46:26 10° SE visible
09 May - 07:21:25 10° WNW 07:24:06 16° WSW 07:26:44 10° SW daylight
09 May - 20:03:54 10° S 20:09:35 58° ESE 20:14:57 10° NE daylight
09 May - 21:47:54 10° W 21:51:59 20° NW 21:55:54 10° N visible
